www.pogodaiklimat.ru

Погода и климат >> Архив погоды >> Россия >> Якутия >> Оймякон


АРХИВ ПОГОДЫ в Оймяконе

Время (UTC), дата Ветер
(напр.,м/с)
 
Видим.   Явления Облачность Т
(С)
Тd
(С)
f
(%)
Тe
(С)
Тes
(С)
Комфортность P
(гПа)
Po
(гПа)
Тmin
(С)
Tmax
(С)
R
(мм)
R24
(мм)
S
(см)
15 14.10 СВ 1 50 км 10/0
[Ac trans Cs]
-13.0 -14.3 90 -15 -15 по сезону 1032.0 937.0
18 14.10 СВ 1 10 км слабый снег 10/8 800 м
[Sc Ac trans Cs]
-12.9 -14.2 90 -15 -15 по сезону 1032.1 937.3
21 14.10 В 1 20 км слабый снег 10/10 1350 м
[Sc]
-12.4 -13.7 90 -15 -15 по сезону 1032.4 937.6 -14.7 0.0 5
00 15.10 штиль 0 20 км слабый снег 10/10 1000 м
[Sc]
-10.4 -11.7 90 -11 -11 по сезону 1031.8 937.8
03 15.10 СВ 2 20 км слабый снег 10/10 1000 м
[Cu Sc]
-8.2 -10.9 81 -13 -13 по сезону 1030.6 937.4
06 15.10 СВ 3 20 км слабый снег 10/10 1000 м
[Cu Sc]
-8.2 -11.4 78 -14 -14 по сезону 1030.2 937.0
09 15.10 С 3 20 км слабый снег 10/10 1000 м
[Sc]
-8.7 -11.1 83 -15 -15 по сезону 1030.5 937.2 -8.0 0.2
12 15.10 С 1 20 км слабый снег 10/8 1000 м
[Sc As op]
-9.0 -11.5 82 -11 -11 тепло 1030.0 936.7
15 15.10 штиль 0 20 км слабый снег 10/8 1000 м
[Sc As op]
-9.5 -12.1 81 -10 -10 тепло 1029.8 936.2
18 15.10 штиль 0 10 км слабый снег 10/8 1000 м
[Sc As op]
-10.3 -11.6 90 -11 -11 тепло 1029.6 935.8
21 15.10 СВ 1 20 км слабый снег 10/8 1000 м
[Sc As op]
-10.4 -11.7 90 -13 -13 по сезону 1030.0 936.2 -10.4 0.2 7
00 16.10 штиль 0 10 км слабый снег 10/8 1000 м
[Sc As op]
-9.4 -11.0 88 -10 -10 тепло 1030.4 936.9
03 16.10 С 2 50 км в посл. час снег 9/6 1000 м
[Cu Sc Ac trans]
-8.4 -12.1 75 -13 -12 по сезону 1031.0 937.7
06 16.10 ЮЗ 1 50 км {снег} 8/8 1000 м
[Cb cap]
-7.7 -12.7 67 -10 -10 по сезону 1030.9 937.8
09 16.10 З 1 50 км 6/6 1000 м
[Sc]
-13.1 -15.1 85 -15 -15 по сезону 1033.7 938.5 -7.5 0.3
12 16.10 З 1 50 км 1/1 1000 м
[Sc]
-18.6 -20.5 85 -21 -21 по сезону 1035.6 938.3
15 16.10 штиль 0 50 км ясно -19.9 -21.8 85 -20 -20 по сезону 1035.4 937.5
18 16.10 штиль 0 50 км ясно -21.8 -23.6 85 -22 -22 по сезону 1035.6 937.2
21 16.10 В 1 50 км 3/3 1000 м
[Sc]
-23.6 -25.5 84 -27 -27 холодно 1035.4 936.3 -23.7 7
00 17.10 штиль 0 50 км 10/10 300 м
[St]
-17.0 -18.9 85 -17 -17 по сезону 1032.0 935.5
03 17.10 СВ 1 50 км слабый снег 9/9 300 м
[St]
-14.2 -15.5 90 -17 -16 по сезону 1029.1 934.0
06 17.10 СВ 2 50 км {снег} ясно -13.5 -15.5 85 -18 -18 прохладно 1026.9 932.2
09 17.10 З 1 50 км ясно -19.8 -21.7 85 -23 -23 холодно 1028.7 931.7 -11.1 0.0
12 17.10 ЮЗ 1 50 км ясно -22.6 -24.4 85 -26 -26 прохладно 1029.0 930.9
15 17.10 Ю 1 50 км ясно -25.0 -26.7 86 -29 -29 холодно 1029.0 929.9
18 17.10 штиль 0 50 км ясно -25.3 -27.0 86 -25 -25 по сезону 1027.6 928.6
21 17.10 Ю 1 2000 м дымка 10/10 200 м
[St]
-20.9 -22.8 85 -24 -24 прохладно 1025.3 928.1 -25.4 7
00 18.10 штиль 0 2000 м слабый снег {туман} 10/10 750 м
[St]
-18.1 -20.0 85 -18 -18 по сезону 1023.2 927.3
03 18.10 штиль 0 20 км {снег} 10/10 800 м
[St]
-16.5 -17.8 90 -17 -17 по сезону 1021.1 925.9
06 18.10 В 1 50 км {снег} 9/9 960 м
[St Ci fib]
-16.0 -17.3 90 -19 -19 прохладно 1020.0 925.0
09 18.10 штиль 0 50 км 10/10 800 м
[St]
-20.0 -21.2 90 -20 -20 по сезону 1022.1 925.5 -15.9 0.0
12 18.10 штиль 0 50 км 10/10 420 м
[St]
-17.4 -18.6 90 -17 -17 по сезону 1021.2 925.6
15 18.10 штиль 0 20 км слабый снег 10/10 300 м
[St]
-17.4 -18.6 90 -17 -17 по сезону 1021.3 925.7
18 18.10 штиль 0 20 км слабый снег 10/10 300 м
[St]
-17.0 -18.3 90 -17 -17 по сезону 1020.9 925.5
21 18.10 штиль 0 20 км слабый снег 10/10 600 м
[St]
-16.4 -17.7 90 -16 -16 по сезону 1021.2 926.0 -20.0 0.0 7
00 19.10 С 1 4000 м слабый снег 10/10 600 м
[St]
-15.5 -16.8 90 -18 -18 по сезону 1020.6 925.7
03 19.10 С 1 4000 м слабый снег 10/10 600 м
[St]
-14.2 -15.5 90 -17 -17 по сезону 1019.5 925.3
06 19.10 СВ 1 50 км слабый снег 10/8 1000 м
[Sc Ac As]
-13.5 -14.8 90 -16 -16 по сезону 1018.9 924.9
09 19.10 З 2 50 км слабый снег 8/6 1000 м
[Sc Ac und]
-17.0 -18.3 90 -22 -22 прохладно 1020.5 925.2 -13.0 0.3
12 19.10 З 2 50 км {снег} 1/1 1000 м
[Sc]
-22.0 -23.8 85 -28 -28 холодно 1023.1 925.7
15 19.10 ЮЗ 1 50 км 10/5 600 м
[St Cs]
-21.2 -23.0 85 -24 -24 по сезону 1022.8 925.8
18 19.10 З 1 20 км слабый снег 10/10 1080 м
[Sc]
-18.6 -20.5 85 -21 -21 по сезону 1021.5 925.6
21 19.10 ЮЗ 1 20 км слабый снег 10/10 1050 м
[Sc]
-17.4 -19.3 85 -20 -20 по сезону 1021.7 926.1 -22.6 0.0 7
00 20.10 В 2 4000 м слабый снег 10/10 1080 м
[Sc]
-15.9 -17.2 90 -21 -21 по сезону 1021.8 926.8
03 20.10 З 2 20 км слабый снег 10/10 1200 м
[Sc]
-13.1 -15.1 85 -18 -18 по сезону 1020.5 926.5
06 20.10 З 2 20 км слабый снег 10/10 1170 м
[St]
-13.3 -16.0 80 -18 -18 по сезону 1021.2 927.2
09 20.10 ЮЗ 2 20 км слабый снег 10/10 1080 м
[St]
-14.2 -16.9 80 -19 -19 по сезону 1023.8 929.2 -13.0 0.2
12 20.10 СЗ 2 20 км слабый снег 10/10 1080 м
[Sc]
-15.2 -17.2 85 -20 -20 по сезону 1024.4 929.4
15 20.10 штиль 0 20 км слабый снег 10/10 1170 м
[Sc]
-15.0 -17.0 85 -15 -15 тепло 1024.8 929.7
18 20.10 штиль 0 20 км слабый снег 10/10 1140 м
[Sc]
-14.9 -16.9 85 -15 -15 тепло 1025.0 930.1
21 20.10 ЮЗ 1 20 км слабый снег 10/10 1080 м
[Sc]
-14.7 -17.4 80 -17 -17 по сезону 1025.6 930.6 -15.1 0.2 7
00 21.10 штиль 0 10 км слабый снег 10/10 1110 м
[Sc]
-14.2 -16.9 80 -14 -14 по сезону 1026.1 931.3
03 21.10 С 3 10 км слабый снег 10/10 1110 м
[Sc]
-13.6 -16.3 80 -20 -20 по сезону 1025.3 930.7
06 21.10 ЮВ 1 20 км слабый снег 10/10 870 м
[Sc]
-13.2 -15.9 80 -16 -16 по сезону 1025.3 930.9
09 21.10 В 1 20 км слабый снег 10/10 900 м
[Sc]
-13.7 -16.4 80 -16 -16 по сезону 1026.0 931.4 -13.2 0.2

 

Местоположение метеостанции Оймякон (Якутия, Россия): широта 63.25 долгота 143.10 высота над уровнем моря 740 м.

В архиве по умолчанию представлена погода в Оймяконе за последнюю неделю. Архивные данные за месяц целиком и за предыдущие месяцы, начиная с января 2011 года, Вы можете получить, выбрав интересующий диапазон дат из раскрывающегося списка и нажав кнопку "Ввод!".


*Определитесь, кто Вы:
робот инопланетянин человек

Внимание! Время в таблицах - всемирное. Для получения местного времени необходимо прибавить поправку, которая в Оймяконе равна 10 ч.

Смотрите также архив погоды в соседних городах и на ближайших метеорологических станциях:

Погода в Агаякане (Якутия, Россия) (71 км)
Погода в Юртах (Якутия, Россия) (110 км)
Погода в Делянкире (Якутия, Россия) (140 км)
Погода в Усть-Нере (Якутия, Россия) (142 км)
Погода в Восточной (Якутия, Россия) (175 км)
Погода в Сусумане (Магаданская область, Россия) (258 км)
Погода в Колымской (Магаданская область, Россия) (278 км)
Погода в Уеге (Хабаровский край, Россия) (282 км)
Погода в Теплом Ключе (Якутия, Россия) (322 км)
Погода в Ягодной (Магаданская область, Россия) (340 км)

Пояснения к столбцам:

Ветер - указаны скорость ветра в м/с - средняя за 10 мин, порывы в срок и между сроками (в фигурных скобках) и направление, откуда дует ветер: С - северный, СВ - северо-восточный, В - восточный, ЮВ - юго-восточный, Ю - южный, ЮЗ - юго-западный, З - западный, СЗ - северо-западный.
Видимость - горизонтальная дальность видимости в метрах или километрах. При видимости от 1 до 10 км при отсутствии осадков обычно наблюдается дымка, при ухудшении видимости до 1 км и менее - туман. В сухую погоду видимость может ухудшаться дымом, пылью или мглою.
Явления - указаны атмосферные явления, наблюдавшиеся в срок или в последний час перед сроком; фигурными скобками обозначены явления, наблюдавшиеся между сроками (за 1-3 часа до срока); квадратными скобками обозначены град или гололедные отложения с указанием их диаметра в мм.
Облачность - указаны через наклонную черту общая и нижняя облачность в баллах и высота нижней границы облаков в метрах; квадратными скобками обозначены формы облаков: Ci - перистые, Cs - перисто-слоистые, Cc - перисто-кучевые, Ac - высококучевые, As - высокослоистые, Sc - слоисто-кучевые, Ns - слоисто-дождевые, Cu - кучевые, Cb - кучево-дождевые. Подробнее классификацию облаков см. в Атласе облаков (PDF).
T - Температура воздуха - температура, измеренная на высоте 2 м над землей.
Td - Температура точки росы - температура, при понижении до которой содержащийся в воздухе водяной пар достигнет насыщения.
f - Относительная влажность воздуха - влажноcть воздуха, измеренная на высоте 2 м над землей.
Te - Эффективная температура - температура, которую ощущает одетый по сезону человек в тени. Характеристика душности погоды. При расчете учитывается влияние влажности воздуха и скорости ветра на теплоощущения человека.
Tes - Эффективная температура на солнце - температура, которую ощущает человек, с поправкой на солнечный нагрев. Характеристика знойности погоды. Зависит от высоты солнца над горизонтом, облачности и скорости ветра. Ночью, в пасмурную погоду, а также при ветре 12 м/с и более поправка равна нулю.
P - Атмосферное давление - приведенное к уровню моря атмосферное давление.
Po - Атмосферное давление - измеренное на уровне метеостанции атмосферное давление.
Tmin - Минимальная температура - минимум температуры воздуха на высоте 2 м над землей.
Tmax - Максимальная температура - максимум температуры воздуха на высоте 2 м над землей.
R - Количество осадков - Количество выпавших осадков за период времени, мм. При наведении курсора мыши на число - период времени, за который выпало указанное количество осадков.
R24 - Количество осадков - Количество выпавших осадков за 24 часа, мм.
S - Снежный покров - Высота снежного покрова, см. При наведении курсора мыши на число - состояние снежного покрова и степень покрытия местности в баллах.